Regional Weather Roundup
Issued by NWS

Home | Current Version | Previous Version | Text Only | Print | Product List | Glossary Off
Versions: 1 2 3 4 5 6 7 8 9 10 11 12 13 14 15 16 17 18 19 20 21 22 23 24 25 26 27 28 29 30 31 32 33 34 35 36 37 38 39 40 41 42 43 44 45 46 47 48 49 50

000
ASUS45 KSLC 040710
RWRUT

UTAH REGIONAL WEATHER ROUNDUP
NATIONAL WEATHER SERVICE SALT LAKE CITY UT
100 AM MDT FRI SEP 04 2015

UTZ001>011-023>025-040800-

NORTHERN UTAH

CITY           SKY/WX    TMP DP  RH WIND       PRES   REMARKS
BRIGHAM CITY   MOCLDY    68  43  39 NE5       29.79R
HILL AFB       PTCLDY    75  36  24 S15       29.82R
LOGAN          CLEAR     58  49  72 NE6       29.81R
OGDEN          MOCLDY    76  35  22 S15       29.79R
PROVO AIRPORT  CLEAR     70  36  28 SE12      29.86R
SALT LAKE CITY PTCLDY    76  36  23 S15       29.79R
VERNAL         MOCLDY    62  40  44 W5        29.93S
WENDOVER       CLEAR     66  36  32 W6        29.79S
HEBER CITY     CLEAR     70  30  23 S8        29.92R
WEST JORDAN    CLEAR     72  36  26 S15       29.84R

$$

UTZ012>022-026-027-040800-

SOUTHERN/CENTRAL UTAH

CITY           SKY/WX    TMP DP  RH WIND       PRES   REMARKS
BLANDING       MOCLDY    66  48  51 SW6       30.14R
BRYCE CANYON   CLEAR     45  35  68 W5        30.16R
CEDAR CITY     CLEAR     69  27  20 S15       29.99R
DELTA          CLEAR     66  31  27 S12       29.89S
HANKSVILLE     MOCLDY    64  34  32 CALM      29.92R
MILFORD        CLEAR     66  32  28 S14       29.92R
MOAB/CYNLANDS  CLEAR     70  36  28 CALM      29.89S
PRICE          CLEAR     63  35  35 NE8       29.98R
ST GEORGE      SUNNY     79  32  18 SE10      29.84R
KANAB          CLEAR     63  43  48 CALM      30.04S

$$

REGIONAL REPORTS     COLORADO/ARIZONA

CITY           SKY/WX    TMP DP  RH WIND       PRES   REMARKS
CRAIG, CO      CLEAR     58  46  64 E7        30.06S
GRAND JUNCTION CLEAR     67  50  54 SE17      29.95S
RIFLE          CLEAR     57  51  80 CALM      30.04S
MONTROSE       CLEAR     60  49  66 CALM      30.07R
CORTEZ         CLEAR     60  43  53 VRB5      30.08R
PAGE, AZ       CLEAR     74  52  46 S10G24    29.96R
GRAND CANYON   PTCLDY    58  46  64 SW6       30.16R
KINGMAN        CLEAR     74  56  53 SE15      29.91F
FLAGSTAFF      CLOUDY    57  54  89 SW12      30.20F

$$

REGIONAL REPORTS    NEVADA/IDAHO/WYOMING

CITY           SKY/WX    TMP DP  RH WIND       PRES   REMARKS
LAS VEGAS, NV  CLEAR     85  32  15 S5        29.72R
ELY            CLEAR     60  26  27 S17       29.94S
ELKO           PTCLDY    54  34  46 CALM      29.86R
POCATELLO, ID  CLEAR     57  42  57 SW15      29.87S
BURLEY         PTCLDY    53  40  61 SW7       29.86S
EVANSTON, WY   PTCLDY    58  29  33 S9        30.01R
ROCK SPRINGS   CLEAR     60  40  47 SE10      30.01R
KEMMERER       CLOUDY    54  27  35 CALM      30.02S

$$


USA.gov is the U.S. government's official web portal to all federal, state and local government web resources and services.